This demonstration page uses our WeatherBlox Daily Observations layout. Learn more.

Left ArrowRight Arrow

53.62937, 11.41316

Hourly Observations for March 7, 2021

Temp ( °F °C ) Dew Point ( °F °C ) Humidity (%) Winds ( mph kmh ) Pressure ( in mb ) Visibility ( mi km ) Precip ( " mm )
8:50 am 08:50 Mostly Cloudy 37 3 28 -2 70 70 WSW 9 15 30.18 1022 30 48 N/A
9:20 am 09:20 Mostly Cloudy 39 4 28 -2 65 65 WSW 9 15 30.18 1022 30 48 N/A
9:50 am 09:50 Mostly Cloudy 39 4 28 -2 65 65 WSW 9 15 30.15 1021 30 48 N/A
10:20 am 10:20 Mostly Cloudy 39 4 30 -1 70 70 SW 10 17 30.15 1021 30 48 N/A
10:50 am 10:50 Mostly Cloudy 39 4 30 -1 70 70 SW 13 20 30.15 1021 30 48 N/A
11:20 am 11:20 Mostly Cloudy 41 5 30 -1 66 66 SW 13 20 30.15 1021 30 48 N/A
11:50 am 11:50 Mostly Cloudy 41 5 32 0 70 70 WSW 9 15 30.15 1021 30 48 N/A
12:20 pm 12:20 Partly Cloudy 43 6 32 0 66 66 WSW 12 19 30.12 1020 30 48 N/A
12:50 pm 12:50 Partly Cloudy 43 6 32 0 66 66 WSW 14 22 30.12 1020 30 48 N/A
1:20 pm 13:20 Mostly Cloudy 43 6 32 0 66 66 SW 16 26 30.12 1020 30 48 N/A
1:50 pm 13:50 Mostly Cloudy 43 6 32 0 66 66 WSW 14 22 30.09 1019 30 48 N/A
2:20 pm 14:20 Mostly Cloudy 43 6 34 1 71 71 WSW 12 19 30.09 1019 30 48 N/A
2:50 pm 14:50 Mostly Cloudy 43 6 34 1 71 71 SW 12 19 30.09 1019 30 48 N/A
3:20 pm 15:20 Mostly Cloudy with Drizzle 41 5 34 1 76 76 WSW 12 19 30.06 1018 30 48 N/A
3:50 pm 15:50 Mostly Cloudy with Drizzle 41 5 34 1 76 76 WSW 10 17 30.06 1018 4 7 N/A
4:20 pm 16:20 Mostly Cloudy 41 5 36 2 81 81 WSW 10 17 30.06 1018 5 8 N/A
4:50 pm 16:50 Mostly Cloudy 41 5 36 2 81 81 WSW 9 15 30.06 1018 30 48 N/A
5:20 pm 17:20 Mostly Cloudy 41 5 36 2 81 81 SW 9 15 30.06 1018 30 48 N/A
5:50 pm 17:50 Mostly Cloudy with Drizzle 39 4 37 3 93 93 WSW 8 13 30.06 1018 5 8 N/A
6:20 pm 18:20 Cloudy with Light Rain 39 4 39 4 100 100 WSW 6 9 30.06 1018 2 4 N/A
6:50 pm 18:50 Mostly Cloudy with Light Rain 39 4 37 3 93 93 W 5 7 30.06 1018 4 6 N/A
7:20 pm 19:20 Mostly Cloudy 39 4 37 3 93 93 VRB 5 7 30.06 1018 30 48 N/A
7:50 pm 19:50 Mostly Cloudy 39 4 37 3 93 93 W 3 6 30.06 1018 30 48 N/A

Powered by AerisWeather